This is the latest recevied weather packets stored in our database for station/object W4SKW. If no packets are shown the sender has not sent any weather packets the latest 10 day(s).
| Time | Temp. | Humidity | Pressure | Rain* | Wind** | Luminosity | Snow |
|---|---|---|---|---|---|---|---|
| 1777654491 | 19.44° C | 59% | 1016.1 hPa | 0 mm | - | 317 W/m² | - |
| 1777654188 | 19.44° C | 58% | 1015.9 hPa | 0 mm | - | 304 W/m² | - |
| 1777653886 | 19.44° C | 63% | 1016.1 hPa | 0 mm | - | 351 W/m² | - |
| 1777653583 | 18.89° C | 64% | 1016.1 hPa | 0 mm | - | 335 W/m² | - |
| 1777653279 | 17.78° C | 73% | 1016.4 hPa | 0 mm | - | 301 W/m² | - |
| 1777652976 | 17.78° C | 71% | 1016.3 hPa | 0 mm | - | 302 W/m² | - |
| 1777652672 | 17.78° C | 63% | 1016.3 hPa | 0 mm | - | 298 W/m² | - |
| 1777652369 | 18.33° C | 63% | 1016.4 hPa | 0 mm | - | 276 W/m² | - |
| 1777652066 | 17.78° C | 72% | 1016.4 hPa | 0 mm | - | 240 W/m² | - |
| 1777651763 | 17.78° C | 72% | 1016.4 hPa | 0 mm | - | 240 W/m² | - |
| 1777651459 | 17.78° C | 64% | 1016.7 hPa | 0 mm | - | 268 W/m² | - |
| 1777651157 | 17.78° C | 71% | 1016.6 hPa | 0 mm | - | 244 W/m² | - |
| 1777650854 | 17.78° C | 67% | 1016.6 hPa | 0 mm | - | 223 W/m² | - |
| 1777650550 | 17.78° C | 61% | 1016.5 hPa | 0 mm | - | 221 W/m² | - |
| 1777650248 | 17.78° C | 61% | 1016.7 hPa | 0 mm | - | 220 W/m² | - |
| 1777649945 | 17.22° C | 63% | 1016.5 hPa | 0 mm | - | 269 W/m² | - |
| 1777649643 | 17.22° C | 64% | 1016.2 hPa | 0 mm | - | 315 W/m² | - |
| 1777649337 | 17.22° C | 70% | 1016.2 hPa | 0 mm | - | 250 W/m² | - |
| 1777649035 | 17.22° C | 71% | 1016.3 hPa | 0 mm | - | 253 W/m² | - |
| 1777648733 | 17.22° C | 69% | 1016.4 hPa | 0 mm | - | 217 W/m² | - |
| 1777648429 | 16.67° C | 66% | 1016.5 hPa | 0 mm | - | 215 W/m² | - |
| 1777648125 | 16.67° C | 64% | 1016.5 hPa | 0 mm | - | 225 W/m² | - |
| 1777647821 | 16.67° C | 64% | 1016.5 hPa | 0 mm | - | 236 W/m² | - |
| 1777647518 | 16.67° C | 71% | 1016.3 hPa | 0 mm | - | 230 W/m² | - |
| 1777647215 | 16.67° C | 69% | 1016.5 hPa | 0 mm | - | 202 W/m² | - |
* Rain latest hour (hover to see other rain measurements)
** Current wind speed in m/s (hover to see current wind gust speed)